Weather History for Driggs, ID

Change the Weather History Date:

Saturday, March 1, 2014

  Actual Average (KRXE) Record (KRXE)
Temperature  
Mean Temperature 24 °F 27 °F  
Max Temperature 33 °F 38 °F 43 °F (2000)
Min Temperature 14 °F 17 °F -1 °F (2002)
Degree Days  
Heating Degree Days 42 38  
Month to date heating degree days 38  
Since 1 July heating degree days 6011  
Cooling Degree Days 0 0  
Month to date cooling degree days 0  
Year to date cooling degree days 0  
Moisture  
Dew Point 21 °F    
Average Humidity 93    
Maximum Humidity 100    
Minimum Humidity 79    
Precipitation  
Precipitation 0.39 in 0.03 in 0.25 in (2005)
Month to date precipitation 0.03  
Year to date precipitation 1.60  
Sea Level Pressure  
Sea Level Pressure 29.61 in    
Wind  
Wind Speed 4 mph (West)    
Max Wind Speed 13 mph    
Max Gust Speed -    
Visibility 2 miles    
Events Fog , Snow    
T = Trace of Precipitation, MM = Missing Value Source: NWS Daily Summary

Daily Weather History Graph

Daily Weather History Graph

Search for Another Location

Airport:

Trip Planner

Search our weather history database for the weather conditions in past years. The results will help you decide how hot, cold, wet, or windy it might be!

Date:

Astronomy

Mar. 01, 2014 Rise Set
Actual Time 7:00 AM MST 6:13 PM MST
Civil Twilight 6:32 AM MST 6:41 PM MST
Nautical Twilight 5:58 AM MST 7:15 PM MST
Astronomical Twilight 5:25 AM MST 7:48 PM MST
Moon 6:55 AM MST (3/1) 7:07 PM MST (3/1)
Length of Visible Light 12h 09m
Length of Day
11h 12m
New Moon, 0% of the Moon is Illuminated
Mar 1
New Moon
Mar 8
First Quarter
Mar 16
Full
Mar 23
Last Quarter
Mar 30
New

Hourly Weather History & Observations

Time (MST) Temp. Windchill Dew Point Humidity Pressure Visibility Wind Dir Wind Speed Gust Speed Precip Events Conditions
12:56 AM 30.0 °F 24.1 °F 28.0 °F 92% 29.47 in 10.0 mi ESE 5.8 mph - N/A   Mostly Cloudy
1:07 AM 30.2 °F 24.3 °F 28.4 °F 93% 29.52 in 10.0 mi East 5.8 mph - N/A   Overcast
1:56 AM 32.0 °F - 29.1 °F 89% 29.44 in 10.0 mi Calm Calm - 0.00 in   Overcast
2:04 AM 32.0 °F - 30.2 °F 93% 29.51 in 10.0 mi Calm Calm - 0.00 in   Overcast
2:56 AM 32.9 °F 28.5 °F 30.0 °F 89% 29.42 in 4.0 mi ENE 4.6 mph - 0.00 in Snow Light Snow
3:07 AM 33.8 °F 28.6 °F 30.2 °F 87% 29.47 in 2.5 mi ENE 5.8 mph - 0.00 in Snow Light Snow
3:35 AM 32.0 °F 25.6 °F 30.2 °F 93% 29.46 in 3.0 mi East 6.9 mph - 0.00 in Snow Light Snow
3:56 AM 32.0 °F 27.5 °F 32.0 °F 100% 29.38 in 3.0 mi East 4.6 mph - 0.01 in Snow Light Snow
4:14 AM 32.0 °F - 32.0 °F 100% 29.45 in 9.0 mi Calm Calm - 0.00 in Snow Light Snow
4:30 AM 32.0 °F 28.7 °F 32.0 °F 100% 29.44 in 5.0 mi Variable 3.5 mph - 0.00 in Snow Light Snow
4:32 AM 32.0 °F 28.7 °F 32.0 °F 100% 29.44 in 1.8 mi West 3.5 mph - 0.00 in Snow Light Snow
4:34 AM 32.0 °F - 32.0 °F 100% 29.44 in 1.0 mi Calm Calm - 0.00 in Snow Light Snow
4:38 AM 30.2 °F 26.7 °F 30.2 °F 100% 29.44 in 0.5 mi West 3.5 mph - 0.00 in Fog , Snow Light Snow
4:48 AM 30.2 °F 26.7 °F 30.2 °F 100% 29.44 in 0.8 mi West 3.5 mph - 0.00 in Snow Light Snow
4:56 AM 31.1 °F - 31.1 °F 100% 29.38 in 1.0 mi Calm Calm - 0.00 in Snow Light Snow
5:30 AM 32.0 °F - 32.0 °F 100% 29.43 in 1.2 mi Calm Calm - 0.01 in Snow Light Snow
5:42 AM 32.0 °F - 32.0 °F 100% 29.43 in 1.0 mi Calm Calm - 0.01 in Snow Light Snow
5:56 AM 32.0 °F - 32.0 °F 100% 29.36 in 1.2 mi Calm Calm - 0.02 in Snow Light Snow
6:35 AM 24.8 °F 19.1 °F 24.8 °F 100% 29.43 in 1.0 mi NW 4.6 mph - 0.02 in Snow Light Snow
6:56 AM 22.1 °F 14.7 °F 21.0 °F 96% 29.42 in 1.0 mi WNW 5.8 mph - 0.02 in Snow Light Snow
7:05 AM 19.4 °F 14.3 °F 19.4 °F 100% 29.44 in 0.8 mi WNW 3.5 mph - 0.00 in Snow Light Snow
7:13 AM 19.4 °F 14.3 °F 17.6 °F 93% 29.44 in 0.5 mi WNW 3.5 mph - 0.00 in Fog , Snow Light Snow
7:56 AM 18.1 °F - 16.2 °F 92% 29.47 in 0.8 mi Calm Calm - 0.01 in Snow Light Snow
8:13 AM 17.6 °F 12.3 °F 15.8 °F 93% 29.47 in 1.0 mi SSW 3.5 mph - 0.00 in Snow Light Snow
8:27 AM 17.6 °F 12.3 °F 15.8 °F 93% 29.48 in 1.2 mi SW 3.5 mph - 0.00 in Snow Light Snow
8:46 AM 17.6 °F 10.7 °F 15.8 °F 93% 29.49 in 1.0 mi SW 4.6 mph - 0.00 in Snow Light Snow
8:56 AM 16.2 °F 9.0 °F 14.0 °F 91% 29.52 in 0.8 mi SW 4.6 mph - 0.00 in Snow Light Snow
9:21 AM 15.8 °F 7.2 °F 14.0 °F 93% 29.51 in 0.5 mi West 5.8 mph - 0.00 in Fog , Snow Light Snow
9:38 AM 14.0 °F - 12.2 °F 93% 29.51 in 0.8 mi Calm Calm - 0.00 in Snow Light Snow
9:56 AM 15.1 °F - 13.1 °F 92% 29.54 in 0.5 mi Calm Calm - 0.01 in Fog , Snow Light Snow
10:05 AM 15.8 °F - 12.2 °F 86% 29.51 in 0.8 mi Calm Calm - 0.00 in Snow Light Snow
10:24 AM 15.8 °F - 12.2 °F 86% 29.52 in 0.5 mi Calm Calm - 0.00 in Fog , Snow Light Snow
10:48 AM 15.8 °F - 12.2 °F 86% 29.53 in 0.2 mi Calm Calm - 0.00 in Fog , Snow Light Snow
10:56 AM 17.1 °F - 15.1 °F 92% 29.55 in 0.8 mi Calm Calm - 0.00 in Snow Light Snow
11:07 AM 17.6 °F - 15.8 °F 93% 29.54 in 1.2 mi Calm Calm - 0.00 in Snow Light Snow
11:15 AM 17.6 °F - 15.8 °F 93% 29.54 in 1.8 mi Calm Calm - 0.00 in Snow Light Snow
11:21 AM 19.4 °F - 15.8 °F 86% 29.54 in 1.0 mi Calm Calm - 0.01 in Snow Light Snow
11:25 AM 19.4 °F - 15.8 °F 86% 29.55 in 0.5 mi Calm Calm - 0.01 in Fog , Snow Snow
11:34 AM 17.6 °F - 12.2 °F 79% 29.55 in 0.2 mi Calm Calm - 0.02 in Fog , Snow Light Snow
11:48 AM 15.8 °F 8.6 °F 12.2 °F 86% 29.56 in 0.5 mi West 4.6 mph - 0.04 in Fog , Snow Light Snow
11:56 AM 15.1 °F 9.4 °F 12.0 °F 88% 29.60 in 0.2 mi West 3.5 mph - 0.05 in Fog , Snow Light Snow
12:34 PM 15.8 °F - 10.4 °F 79% 29.58 in 0.5 mi Calm Calm - 0.05 in Fog , Snow Light Snow
12:56 PM 18.1 °F 12.9 °F 13.1 °F 81% 29.61 in 0.8 mi ESE 3.5 mph - 0.06 in Snow Light Snow
1:05 PM 17.6 °F - 12.2 °F 79% 29.58 in 1.2 mi Calm Calm - 0.01 in Snow Light Snow
1:14 PM 17.6 °F 12.3 °F 14.0 °F 86% 29.58 in 0.8 mi South 3.5 mph - 0.02 in Snow Light Snow
1:28 PM 17.6 °F - 15.8 °F 93% 29.59 in 0.5 mi Calm Calm - 0.02 in Fog , Snow Light Snow
1:37 PM 17.6 °F 12.3 °F 15.8 °F 93% 29.60 in 1.0 mi WSW 3.5 mph - 0.02 in Snow Light Snow
1:41 PM 17.6 °F - 14.0 °F 86% 29.60 in 1.5 mi Calm Calm - 0.02 in Snow Light Snow
1:46 PM 17.6 °F - 14.0 °F 86% 29.60 in 3.0 mi Calm Calm - 0.02 in Snow Light Snow
1:56 PM 18.1 °F 12.9 °F 15.1 °F 88% 29.62 in 5.0 mi Variable 3.5 mph - 0.03 in Snow Light Snow
2:56 PM 22.1 °F - 18.1 °F 85% 29.61 in 5.0 mi Calm Calm - 0.01 in Snow Light Snow
3:08 PM 23.0 °F 14.7 °F 19.4 °F 86% 29.61 in 2.5 mi ESE 6.9 mph - 0.01 in Snow Light Snow
3:29 PM 26.6 °F 16.8 °F 24.8 °F 93% 29.62 in 2.0 mi SSE 10.4 mph - 0.03 in Snow Light Snow
3:43 PM 30.2 °F 21.9 °F 28.4 °F 93% 29.62 in 1.8 mi SSE 9.2 mph - 0.04 in Snow Light Snow
3:56 PM 24.1 °F 17.0 °F 22.1 °F 92% 29.62 in 1.8 mi West 5.8 mph - 0.04 in Snow Light Snow
4:14 PM 19.4 °F 11.5 °F 17.6 °F 93% 29.63 in 1.2 mi WNW 5.8 mph - 0.01 in Snow Light Snow
4:21 PM 19.4 °F - 17.6 °F 93% 29.63 in 1.5 mi Calm Calm - 0.02 in Snow Light Snow
4:32 PM 19.4 °F 14.3 °F 17.6 °F 93% 29.64 in 1.2 mi NW 3.5 mph - 0.02 in Snow Light Snow
4:39 PM 19.4 °F - 17.6 °F 93% 29.64 in 1.0 mi Calm Calm - 0.03 in Snow Light Snow
4:41 PM 21.2 °F - 17.6 °F 86% 29.64 in 1.2 mi Calm Calm - 0.03 in Snow Light Snow
4:47 PM 21.2 °F 16.4 °F 17.6 °F 86% 29.64 in 1.5 mi ENE 3.5 mph - 0.03 in Snow Light Snow
4:56 PM 22.1 °F - 19.0 °F 88% 29.65 in 1.0 mi Calm Calm - 0.03 in Snow Light Snow
5:09 PM 23.0 °F 13.9 °F 21.2 °F 93% 29.64 in 1.5 mi SE 8.1 mph - 0.00 in Snow Light Snow
5:19 PM 26.6 °F 18.2 °F 26.6 °F 100% 29.64 in 1.8 mi SE 8.1 mph - 0.01 in Snow Light Snow
5:25 PM 28.4 °F 19.7 °F 28.4 °F 100% 29.64 in 1.0 mi SE 9.2 mph - 0.01 in Snow Light Snow
5:45 PM 21.2 °F 11.7 °F 19.4 °F 93% 29.65 in 1.2 mi West 8.1 mph - 0.02 in Snow Light Snow
5:56 PM 20.1 °F 10.3 °F 19.0 °F 96% 29.68 in 0.8 mi NW 8.1 mph - 0.02 in Snow Light Snow
6:09 PM 21.2 °F 11.7 °F 19.4 °F 93% 29.67 in 1.0 mi NW 8.1 mph - 0.00 in Snow Light Snow
6:16 PM 21.2 °F 9.5 °F 21.2 °F 100% 29.67 in 0.8 mi North 11.5 mph - 0.00 in Snow Light Snow
6:20 PM 21.2 °F 9.5 °F 21.2 °F 100% 29.68 in 0.5 mi North 11.5 mph - 0.00 in Fog , Snow Light Snow
6:29 PM 21.2 °F 8.9 °F 21.2 °F 100% 29.68 in 0.2 mi NNW 12.7 mph - 0.00 in Fog , Snow Light Snow
6:45 PM 24.8 °F 15.3 °F 21.2 °F 86% 29.69 in 0.5 mi North 9.2 mph - 0.00 in Fog , Snow Snow
6:56 PM 24.1 °F 16.0 °F 23.0 °F 96% 29.75 in 0.8 mi North 6.9 mph - 0.00 in Snow Light Snow
7:04 PM 24.8 °F 17.9 °F 23.0 °F 93% 29.70 in 0.5 mi NNE 5.8 mph - 0.01 in Fog , Snow Snow
7:12 PM 24.8 °F 16.9 °F 24.8 °F 100% 29.71 in 0.8 mi NNE 6.9 mph - 0.01 in Snow Light Snow
7:39 PM 26.6 °F 20.0 °F 24.8 °F 93% 29.73 in 0.5 mi NE 5.8 mph - 0.01 in Fog , Snow Snow
7:56 PM 22.1 °F 14.7 °F 20.1 °F 92% 29.81 in 0.5 mi Variable 5.8 mph - 0.01 in Fog , Snow Light Snow
8:06 PM 19.4 °F 9.5 °F 17.6 °F 93% 29.74 in 0.8 mi South 8.1 mph - 0.00 in Snow Light Snow
8:20 PM 17.6 °F 7.3 °F 15.8 °F 93% 29.75 in 1.2 mi SSE 8.1 mph - 0.00 in Snow Light Snow
8:35 PM 17.6 °F 9.3 °F 15.8 °F 93% 29.75 in 2.0 mi SSE 5.8 mph - 0.00 in Snow Light Snow
8:56 PM 19.0 °F 13.9 °F 18.1 °F 96% 29.85 in 7.0 mi Variable 3.5 mph - 0.00 in Snow Light Snow
9:33 PM 21.2 °F 13.6 °F 19.4 °F 93% 29.76 in 2.5 mi ENE 5.8 mph - 0.00 in Snow Light Snow
9:39 PM 23.0 °F 18.4 °F 21.2 °F 93% 29.76 in 1.8 mi Variable 3.5 mph - 0.00 in Snow Light Snow
9:43 PM 21.2 °F - 21.2 °F 100% 29.76 in 1.2 mi Calm Calm - 0.00 in Snow Light Snow
9:49 PM 21.2 °F 16.4 °F 19.4 °F 93% 29.77 in 0.8 mi SSW 3.5 mph - 0.00 in Snow Light Snow
9:56 PM 21.0 °F 12.4 °F 20.1 °F 96% 29.87 in 0.8 mi WSW 6.9 mph - 0.00 in Snow Light Snow
10:05 PM 21.2 °F 16.4 °F 19.4 °F 93% 29.78 in 1.2 mi Variable 3.5 mph - 0.01 in Snow Light Snow
10:13 PM 21.2 °F 14.9 °F 19.4 °F 93% 29.78 in 2.0 mi NW 4.6 mph - 0.01 in Snow Light Snow
10:23 PM 21.2 °F 16.4 °F 19.4 °F 93% 29.78 in 3.0 mi NNW 3.5 mph - 0.03 in Snow Light Snow
10:41 PM 21.2 °F 16.4 °F 19.4 °F 93% 29.79 in 3.0 mi NW 3.5 mph - 0.05 in Snow Light Snow
10:48 PM 21.2 °F - 19.4 °F 93% 29.80 in 2.0 mi Calm Calm - 0.06 in Snow Light Snow
10:56 PM 22.1 °F - 20.1 °F 92% 29.88 in 1.8 mi Calm Calm - 0.06 in Snow Light Snow
11:05 PM 21.2 °F - 19.4 °F 93% 29.80 in 1.2 mi Calm Calm - 0.00 in Snow Light Snow
11:18 PM 21.2 °F - 21.2 °F 100% 29.81 in 1.0 mi Calm Calm - 0.00 in Snow Light Snow
11:31 PM 21.2 °F - 21.2 °F 100% 29.81 in 0.8 mi Calm Calm - 0.00 in Snow Light Snow
11:43 PM 21.2 °F 16.4 °F 21.2 °F 100% 29.82 in 1.2 mi SE 3.5 mph - 0.00 in Snow Light Snow
11:56 PM 23.0 °F 18.4 °F 21.0 °F 92% 29.91 in 1.8 mi SSE 3.5 mph - 0.01 in Snow Light Snow